Hourly Data Report for October 03, 2015

All times are specified in Local Standard Time (LST). Add 1 hour to adjust for Daylight Saving Time where and when it is observed.

CLYDE RIVER A
NUNAVUT

70°29'09.000" N
68°31'01.000" W
26.50 m
2400804
71090
YCY

Download Data

Hourly Data (October 2015)
Hourly Data Report for October 3, 2015
Temp Definition
°C
Dew Point Temp Definition
°C
Rel Hum Definition
%
Wind Dir Definition
10's deg

Wind Spd Definition
km/h
Visibility Definition
km
Stn Press Definition
kPa
Hmdx Definition


Wind Chill Definition


Weather Definition


TIME
00:00 Legend Double Dagger -1.7 -8.9 58 20 11 16.1 101.50   -6 LegendNANA
01:00 Legend Double Dagger -1.9 -8.7 60 23 17 16.1 101.57   -7 LegendNANA
02:00 Legend Double Dagger -2.3 -9.5 58   0 16.1 101.63     LegendNANA
03:00 Legend Double Dagger -3.0 -9.3 62 26 17 16.1 101.70   -9 LegendNANA
04:00 Legend Double Dagger -4.1 -9.2 68 25 9 16.1 101.78   -8 LegendNANA
05:00 Legend Double Dagger -2.9 -8.4 66 25 17 16.1 101.79   -8 LegendNANA
06:00 Legend Double Dagger -3.0 -7.9 69 23 13 16.1 101.85   -8 LegendNANA
07:00 Legend Double Dagger -0.7 -8.9 54 22 22 16.1 101.84   -6 LegendNANA
08:00 Legend Double Dagger -0.3 -6.5 63 23 18 16.1 101.85   -5 LegendNANA
09:00 Legend Double Dagger 0.6 -6.4 60 21 18 16.1 101.84     LegendNANA
10:00 Legend Double Dagger 1.9 -7.1 51 22 13 16.1 101.82     LegendNANA
11:00 Legend Double Dagger 1.4 -6.1 57 23 9 16.1 101.83     LegendNANA
12:00 Legend Double Dagger 0.9 -5.3 64 35 9 16.1 101.81     LegendNANA
13:00 Legend Double Dagger 0.4 -5.7 64 33 13 16.1 101.83     LegendNANA
14:00 Legend Double Dagger 0.7 -6.5 59 31 11 16.1 101.82     LegendNANA
15:00 Legend Double Dagger 0.2 -5.3 67 35 13 16.1 101.83     LegendNANA
16:00 Legend Double Dagger -0.7 -4.8 74 34 9 16.1 101.84   -4 LegendNANA
17:00 Legend Double Dagger -0.9 -4.8 75 33 13 16.1 101.82   -5 LegendNANA
18:00 Legend Double Dagger -1.1 -4.5 78 35 11 16.1 101.76   -5 LegendNANA
19:00 Legend Double Dagger -1.4 -3.6 85 2 8 16.1 101.73   -4 LegendNANA
20:00 Legend Double Dagger -2.9 -4.3 90 34 11 16.1 101.68   -7 LegendNANA
21:00 Legend Double Dagger -3.3 -4.3 93 31 17 16.1 101.68   -9 LegendNANA
22:00 Legend Double Dagger -3.9 -4.9 93 31 18 16.1 101.64   -10 LegendNANA
23:00 Legend Double Dagger -4.2 -5.3 92 30 18 16.1 101.62   -10 LegendNANA

Notes on Data Quality.

Legend

  • E = Estimated
  • M = Missing
  • NA = Not Available
  • ‡ = Partner data that is not subject to review by the National Climate Archives
Date modified: